| time (UTC) | temp F | wind direction | speed MPH | gust MPH | rain 1hr in | rain 24hr in | rain mn in | humidity % | barometer mb |
| 20260505234207 | 79 | 270 | 11.0 | 21.0 | 0.00 | 0.00 | 0.00 | 24 | 1007.8 |
| 20260505233307 | 79 | 272 | 9.0 | 16.0 | 0.00 | 0.00 | 0.00 | 23 | 1007.8 |
| 20260505232407 | 77 | 290 | 9.0 | 16.0 | 0.00 | 0.00 | 0.00 | 26 | 1007.9 |
| 20260505231507 | 78 | 273 | 9.0 | 16.0 | 0.00 | 0.00 | 0.00 | 25 | 1007.9 |
| 20260505230607 | 79 | 255 | 6.0 | 16.0 | 0.00 | 0.00 | 0.00 | 25 | 1008.0 |
| 20260505224807 | 79 | 273 | 8.0 | 16.0 | 0.00 | 0.00 | 0.00 | 25 | 1007.9 |
| 20260505223907 | 81 | 250 | 8.0 | 15.0 | 0.00 | 0.00 | 0.00 | 24 | 1008.2 |
| 20260505222107 | 79 | 273 | 9.0 | 16.0 | 0.00 | 0.00 | 0.00 | 26 | 1008.3 |
| 20260505220306 | 81 | 269 | 10.0 | 20.0 | 0.00 | 0.00 | 0.00 | 24 | 1008.5 |
| 20260505215406 | 81 | 268 | 7.0 | 17.0 | 0.00 | 0.00 | 0.00 | 24 | 1008.4 |
| 20260505214508 | 79 | 264 | 9.0 | 16.0 | 0.00 | 0.00 | 0.00 | 26 | 1008.5 |
| 20260505213607 | 80 | 270 | 7.0 | 16.0 | 0.00 | 0.00 | 0.00 | 25 | 1008.5 |
| 20260505212706 | 81 | 236 | 6.0 | 13.0 | 0.00 | 0.00 | 0.00 | 25 | 1008.6 |
| 20260505211806 | 82 | 240 | 7.0 | 18.0 | 0.00 | 0.00 | 0.00 | 24 | 1008.8 |
| 20260505210907 | 80 | 246 | 7.0 | 15.0 | 0.00 | 0.00 | 0.00 | 27 | 1008.8 |
| 20260505210007 | 79 | 179 | 5.0 | 16.0 | 0.00 | 0.00 | 0.00 | 25 | 1008.9 |
| 20260505205107 | 81 | 222 | 7.0 | 15.0 | 0.00 | 0.00 | 0.00 | 25 | 1009.0 |
| 20260505204208 | 81 | 258 | 8.0 | 25.0 | 0.00 | 0.00 | 0.00 | 26 | 1009.0 |
| 20260505203307 | 80 | 252 | 6.0 | 15.0 | 0.00 | 0.00 | 0.00 | 28 | 1009.1 |
| 20260505202406 | 81 | 243 | 6.0 | 14.0 | 0.00 | 0.00 | 0.00 | 28 | 1009.1 |
| 20260505201507 | 77 | 221 | 4.0 | 15.0 | 0.00 | 0.00 | 0.00 | 32 | 1009.3 |
| 20260505200606 | 77 | 193 | 6.0 | 11.0 | 0.00 | 0.00 | 0.00 | 33 | 1009.3 |
| 20260505193907 | 77 | 274 | 7.0 | 14.0 | 0.00 | 0.00 | 0.00 | 35 | 1009.4 |
| 20260505193007 | 79 | 221 | 5.0 | 12.0 | 0.00 | 0.00 | 0.00 | 34 | 1009.5 |
| 20260505192107 | 76 | 191 | 6.0 | 11.0 | 0.00 | 0.00 | 0.00 | 36 | 1009.5 |
| 20260505191206 | 76 | 239 | 5.0 | 16.0 | 0.00 | 0.00 | 0.00 | 36 | 1009.7 |
| 20260505190306 | 77 | 198 | 5.0 | 12.0 | 0.00 | 0.00 | 0.00 | 35 | 1009.8 |
| 20260505183606 | 76 | 214 | 5.0 | 13.0 | 0.00 | 0.00 | 0.00 | 37 | 1010.0 |
| 20260505182707 | 76 | 210 | 5.0 | 13.0 | 0.00 | 0.00 | 0.00 | 37 | 1010.1 |
| 20260505181806 | 76 | 199 | 6.0 | 13.0 | 0.00 | 0.00 | 0.00 | 38 | 1010.2 |
| 20260505180906 | 75 | 193 | 5.0 | 11.0 | 0.00 | 0.00 | 0.00 | 38 | 1010.1 |
| 20260505180006 | 74 | 195 | 4.0 | 11.0 | 0.00 | 0.00 | 0.00 | 40 | 1010.2 |
| 20260505175106 | 73 | 223 | 5.0 | 10.0 | 0.00 | 0.00 | 0.00 | 45 | 1010.2 |
| 20260505174206 | 72 | 258 | 6.0 | 13.0 | 0.00 | 0.00 | 0.00 | 47 | 1010.2 |
| 20260505173306 | 74 | 293 | 3.0 | 9.0 | 0.00 | 0.00 | 0.00 | 45 | 1010.2 |
| 20260505172406 | 73 | 265 | 5.0 | 9.0 | 0.00 | 0.00 | 0.00 | 48 | 1010.2 |
| 20260505171507 | 74 | 276 | 7.0 | 11.0 | 0.00 | 0.00 | 0.00 | 48 | 1010.3 |
| 20260505165706 | 73 | 303 | 5.0 | 11.0 | 0.00 | 0.00 | 0.00 | 49 | 1010.2 |
| 20260505164806 | 73 | 233 | 4.0 | 12.0 | 0.00 | 0.00 | 0.00 | 47 | 1010.2 |
| 20260505163906 | 74 | 228 | 4.0 | 10.0 | 0.00 | 0.00 | 0.00 | 47 | 1010.2 |
| 20260505163008 | 74 | 257 | 4.0 | 11.0 | 0.00 | 0.00 | 0.00 | 47 | 1010.3 |
| 20260505162106 | 70 | 232 | 2.0 | 8.0 | 0.00 | 0.00 | 0.00 | 52 | 1010.4 |
| 20260505161206 | 69 | 193 | 3.0 | 10.0 | 0.00 | 0.00 | 0.00 | 53 | 1010.4 |
| 20260505160307 | 69 | 200 | 3.0 | 10.0 | 0.00 | 0.00 | 0.00 | 53 | 1010.4 |
| 20260505152706 | 69 | 227 | 3.0 | 7.0 | 0.00 | 0.00 | 0.00 | 55 | 1010.1 |
| 20260505151807 | 69 | 213 | 3.0 | 7.0 | 0.00 | 0.00 | 0.00 | 56 | 1010.2 |
| 20260505150907 | 68 | 184 | 3.0 | 7.0 | 0.00 | 0.00 | 0.00 | 57 | 1010.0 |
| 20260505140606 | 66 | 189 | 3.0 | 9.0 | 0.00 | 0.00 | 0.00 | 61 | 1010.0 |
| 20260505094506 | 67 | 145 | 3.0 | 9.0 | 0.00 | 0.00 | 0.00 | 56 | 1010.1 |
| 20260505093605 | 68 | 154 | 4.0 | 10.0 | 0.00 | 0.00 | 0.00 | 55 | 1010.0 |
| 20260505092706 | 68 | 153 | 6.0 | 11.0 | 0.00 | 0.00 | 0.00 | 56 | 1010.1 |
| 20260505090906 | 68 | 150 | 5.0 | 11.0 | 0.00 | 0.00 | 0.00 | 56 | 1010.2 |
| 20260505085106 | 68 | 159 | 6.0 | 12.0 | 0.00 | 0.00 | 0.00 | 54 | 1010.2 |
| 20260505082406 | 69 | 172 | 7.0 | 16.0 | 0.00 | 0.00 | 0.00 | 48 | 1010.6 |
| 20260505081505 | 70 | 160 | 7.0 | 12.0 | 0.00 | 0.00 | 0.00 | 47 | 1010.6 |
| 20260505075705 | 70 | 178 | 7.0 | 22.0 | 0.00 | 0.00 | 0.00 | 43 | 1010.8 |
| 20260505074805 | 70 | 171 | 6.0 | 22.0 | 0.00 | 0.00 | 0.00 | 43 | 1010.7 |
| 20260505073905 | 70 | 175 | 6.0 | 16.0 | 0.00 | 0.00 | 0.00 | 43 | 1010.5 |
| 20260505073006 | 70 | 171 | 5.0 | 10.0 | 0.00 | 0.00 | 0.00 | 43 | 1010.4 |
| 20260505072105 | 70 | 169 | 5.0 | 14.0 | 0.00 | 0.00 | 0.00 | 42 | 1010.5 |
| 20260505071205 | 71 | 178 | 6.0 | 11.0 | 0.00 | 0.00 | 0.00 | 41 | 1010.6 |
| 20260505070306 | 71 | 176 | 6.0 | 12.0 | 0.00 | 0.00 | 0.00 | 40 | 1010.6 |
| 20260505065406 | 71 | 170 | 5.0 | 16.0 | 0.00 | 0.00 | 0.00 | 38 | 1010.6 |
| 20260505064505 | 71 | 171 | 6.0 | 16.0 | 0.00 | 0.00 | 0.00 | 36 | 1010.5 |
| 20260505063606 | 72 | 174 | 7.0 | 14.0 | 0.00 | 0.00 | 0.00 | 36 | 1010.4 |
| 20260505062705 | 72 | 168 | 6.0 | 14.0 | 0.00 | 0.00 | 0.00 | 34 | 1010.2 |
| 20260505060905 | 72 | 160 | 6.0 | 13.0 | 0.00 | 0.00 | 0.00 | 31 | 1010.0 |
| 20260505060006 | 73 | 159 | 6.0 | 13.0 | 0.00 | 0.00 | 0.00 | 32 | 1009.9 |
| 20260505055105 | 73 | 169 | 5.0 | 12.0 | 0.00 | 0.00 | 0.00 | 32 | 1009.8 |
| 20260505054205 | 73 | 164 | 4.0 | 10.0 | 0.00 | 0.00 | 0.00 | 32 | 1010.0 |
| 20260505053305 | 73 | 162 | 4.0 | 10.0 | 0.00 | 0.00 | 0.00 | 32 | 1010.2 |
| 20260505052405 | 74 | 164 | 4.0 | 10.0 | 0.00 | 0.00 | 0.00 | 32 | 1010.3 |
| 20260505051505 | 74 | 166 | 5.0 | 10.0 | 0.00 | 0.00 | 0.00 | 32 | 1010.5 |
| 20260505050605 | 74 | 175 | 5.0 | 11.0 | 0.00 | 0.00 | 0.00 | 32 | 1010.4 |
| 20260505041205 | 74 | 278 | 4.0 | 6.0 | 0.00 | 0.00 | 0.00 | 43 | 1010.1 |
| 20260505035405 | 74 | 264 | 2.0 | 7.0 | 0.00 | 0.00 | 0.00 | 43 | 1010.2 |
| 20260505033605 | 74 | 246 | 4.0 | 7.0 | 0.00 | 0.00 | 0.00 | 42 | 1009.8 |
| 20260505032706 | 75 | 273 | 4.0 | 7.0 | 0.00 | 0.00 | 0.00 | 42 | 1009.7 |
| 20260505030006 | 75 | 276 | 4.0 | 8.0 | 0.00 | 0.00 | 0.00 | 40 | 1009.3 |
| 20260505025105 | 75 | 274 | 6.0 | 9.0 | 0.00 | 0.00 | 0.00 | 40 | 1009.3 |
| 20260505024205 | 75 | 258 | 4.0 | 10.0 | 0.00 | 0.00 | 0.00 | 40 | 1009.4 |
| 20260505023305 | 76 | 270 | 5.0 | 7.0 | 0.00 | 0.00 | 0.00 | 39 | 1009.2 |
| 20260505022405 | 76 | 271 | 4.0 | 9.0 | 0.00 | 0.00 | 0.00 | 38 | 1009.3 |
| 20260505021506 | 76 | 250 | 4.0 | 7.0 | 0.00 | 0.00 | 0.00 | 37 | 1009.1 |
| 20260505020605 | 76 | 267 | 4.0 | 7.0 | 0.00 | 0.00 | 0.00 | 37 | 1009.2 |
| 20260505015705 | 77 | 272 | 4.0 | 7.0 | 0.00 | 0.00 | 0.00 | 37 | 1009.2 |
| 20260505014805 | 77 | 276 | 4.0 | 7.0 | 0.00 | 0.00 | 0.00 | 37 | 1009.1 |
| 20260505013906 | 77 | 304 | 3.0 | 6.0 | 0.00 | 0.00 | 0.00 | 37 | 1008.8 |
| 20260505013007 | 77 | 299 | 3.0 | 7.0 | 0.00 | 0.00 | 0.00 | 36 | 1008.7 |
| 20260505012105 | 77 | 274 | 3.0 | 8.0 | 0.00 | 0.00 | 0.00 | 36 | 1008.9 |
| 20260505011205 | 78 | 284 | 3.0 | 7.0 | 0.00 | 0.00 | 0.00 | 36 | 1008.8 |
| 20260505005405 | 78 | 203 | 3.0 | 7.0 | 0.00 | 0.00 | 0.00 | 36 | 1008.9 |
| 20260505003605 | 78 | 310 | 2.0 | 3.0 | 0.00 | 0.00 | 0.00 | 37 | 1009.0 |
| 20260505001806 | 78 | 299 | 2.0 | 8.0 | 0.00 | 0.00 | 0.00 | 37 | 1009.1 |
| 20260505000905 | 78 | 292 | 4.0 | 7.0 | 0.00 | 0.00 | 0.00 | 36 | 1009.1 |